User: anonymous   Login
Location: Bowman Observatory
(41.0326°N, 73.6210°W)
Time: 23:15:31
(UTC-05:00)
Language:

Cosmos 2298 Rocket - Orbit

View from above orbital plane
View from above orbital plane
View from above satellite
View from above satellite

Ground track
Ground track

The orbit data is extracted from the following two-line orbital elements,

1 23432U 94083B   14330.11664028  .00000123  00000-0  54002-4 0  9998
2 23432 074.0322 205.9158 0006480 279.4950 232.9047 14.33316013 42466
Epoch (UTC): 26 November 2014 02:47:57
Eccentricity: 0.0006480
inclination: 74.0322°
perigee height: 776 km
apogee height: 785 km
right ascension of ascending node: 205.9158°
argument of perigee: 279.4950°
revolutions per day: 14.33316013
mean anomaly at epoch: 232.9047°
orbit number at epoch: 4246

The dashed part of the orbit path shows where the satellite is in the earth's shadow,  

DLR